Wappingers Falls, NY

8:18 AM EDT on August 27, 2016 (GMT -0400)
Dutchess County

Weather History for KPOU - July, 2014

Change the Weather History Date:

Friday, July 18, 2014

  Actual Average Record
Temperature  
Mean Temperature 68 °F 73 °F  
Max Temperature 81 °F 85 °F 100 °F (1991)
Min Temperature 54 °F 61 °F 50 °F (1976)
Degree Days  
Heating Degree Days 0 0  
Month to date heating degree days 0 0  
Since 1 June heating degree days 7 49  
Since 1 July heating degree days 0 0  
Cooling Degree Days 3 8  
Month to date cooling degree days 176 136  
Year to date cooling degree days 347 299  
Since 1 June cooling degree days 314 263  
Growing Degree Days 18 (Base 50)    
Moisture  
Dew Point 56 °F    
Average Humidity 69    
Maximum Humidity 93    
Minimum Humidity 35    
Precipitation  
Precipitation 0.00 in 0.15 in 0.88 in (1984)
Month to date precipitation 4.12 2.57  
Year to date precipitation 20.44 24.50  
Sea Level Pressure  
Sea Level Pressure 30.19 in    
Wind  
Wind Speed 1 mph (NW)    
Max Wind Speed 6 mph    
Max Gust Speed -    
Visibility 10 miles    
Events      
T = Trace of Precipitation, MM = Missing Value Source: NWS Daily Summary

Daily Weather History Graph

Daily Weather History Graph

Search for Another Location

Airport or City:

Trip Planner

Search our weather history database for the weather conditions in past years. The results will help you decide how hot, cold, wet, or windy it might be!

Date:

Astronomy

Jul. 18, 2014 Rise Set
Actual Time 5:36 AM EDT 8:26 PM EDT
Civil Twilight 5:04 AM EDT 8:58 PM EDT
Nautical Twilight 4:22 AM EDT 9:39 PM EDT
Astronomical Twilight 3:35 AM EDT 10:27 PM EDT
Moon No Moon Rise 12:57 PM EDT (7/18)
Length of Visible Light 15h 54m
Length of Day
14h 49m
Waning Gibbous, 55% of the Moon is Illuminated
Jul 18
Waning Gibbous
Jul 18
Last Quarter
Jul 26
New
Aug 3
First Quarter
Aug 10
Full

Hourly Weather History & Observations

Time (EDT) Temp. Heat Index Dew Point Humidity Pressure Visibility Wind Dir Wind Speed Gust Speed Precip Events Conditions
12:53 AM 59.0 °F - 55.9 °F 90% 30.12 in 10.0 mi Calm Calm - N/A   Clear
2:53 AM 57.0 °F - 55.0 °F 93% 30.14 in 10.0 mi Calm Calm - N/A   Clear
3:53 AM 55.9 °F - 54.0 °F 93% 30.15 in 10.0 mi Calm Calm - N/A   Clear
4:53 AM 55.0 °F - 53.1 °F 93% 30.16 in 10.0 mi Calm Calm - N/A   Clear
5:53 AM 54.0 °F - 52.0 °F 93% 30.18 in 10.0 mi Calm Calm - N/A   Clear
6:53 AM 55.9 °F - 53.1 °F 90% 30.20 in 10.0 mi Calm Calm - N/A   Clear
7:53 AM 60.1 °F - 55.9 °F 86% 30.22 in 10.0 mi Calm Calm - N/A   Clear
8:53 AM 64.0 °F - 57.9 °F 80% 30.23 in 10.0 mi Calm Calm - N/A   Clear
10:53 AM 73.0 °F - 55.9 °F 55% 30.22 in 10.0 mi North 4.6 mph - N/A   Clear
11:53 AM 75.0 °F - 55.0 °F 50% 30.22 in 10.0 mi WNW 4.6 mph - N/A   Clear
12:53 PM 75.9 °F - 55.9 °F 50% 30.21 in 10.0 mi WSW 4.6 mph - N/A   Partly Cloudy
1:53 PM 78.1 °F - 48.0 °F 35% 30.19 in 10.0 mi WSW 5.8 mph - N/A   Partly Cloudy
2:53 PM 80.1 °F - 50.0 °F 35% 30.19 in 10.0 mi North 4.6 mph - N/A   Clear
3:53 PM 81.0 °F 80.4 °F 53.1 °F 38% 30.18 in 10.0 mi Variable 4.6 mph - N/A   Clear
4:53 PM 81.0 °F 80.5 °F 54.0 °F 39% 30.17 in 10.0 mi NE 5.8 mph - N/A   Scattered Clouds
5:53 PM 80.1 °F 80.0 °F 54.0 °F 40% 30.17 in 10.0 mi West 3.5 mph - N/A   Clear
6:53 PM 78.1 °F - 57.0 °F 48% 30.18 in 10.0 mi SE 3.5 mph - N/A   Clear
7:53 PM 73.0 °F - 61.0 °F 66% 30.19 in 10.0 mi ESE 3.5 mph - N/A   Clear
8:53 PM 69.1 °F - 61.0 °F 75% 30.20 in 10.0 mi Calm Calm - N/A   Clear
9:53 PM 64.9 °F - 61.0 °F 87% 30.22 in 10.0 mi Calm Calm - N/A   Clear
10:53 PM 64.0 °F - 60.1 °F 87% 30.21 in 10.0 mi Calm Calm - N/A   Mostly Cloudy
11:53 PM 63.0 °F - 60.1 °F 90% 30.21 in 10.0 mi Calm Calm - N/A   Clear